Погода в Веравале

Индия     20°54′20″N   70°22′48″E
темп.,
°C
ветер,
м/с
пор.,
м/с
влажн.,
%
обл.,
%
осадки,
мм/ч
давл.,
гПа
погр.,
м
18 сентября, сб
сб1823:30+25ююз249280 0.1 1006111
02:30+25ю239446 0.0 100590
05:30+24ю349559 0.1 1005119
08:30+27ю348511 0.1 1007523
11:30+29ююз447337 0.1 10071079
14:30+30ююз437033 0.1 10061149
17:30+28ююз32796 0.1 1006532
20:30+25ю239294 0.0 100870
19 сентября, вс
вс1923:30+25ююз2294100 0.0 100843
02:30+25ююз2295100 0.0 100757
05:30+25юз2295100 0.1 100756
08:30+27зюз458616 0.3 1010545
11:30+30зюз457341 0.3 10101057
14:30+30зюз457012 0.1 10071073
17:30+29зюз457819 0.3 1007519
20:30+26зюз369273 0.1 1009206
20 сентября, пн
пн2023:30+25зюз3695100 0.1 1009243
02:30+25зюз379597 0.1 1008250
05:30+25з3696100 0.1 1007213
08:30+27з3587100 0.1 1009467
11:30+30з5574100 0.3 10091042
14:30+29з6673100 0.3 10061017
17:30+28з5783100 0.3 1006610
20:30+26зюз3693100 0.0 1008260
21 сентября, вт
вт2123:30+26зюз3793100 0.1 1008332
02:30+26з489299 0.1 1006385
05:30+25з489396 0.4 1007333
08:30+27з588475 0.6 1008678
11:30+29з787340 1.2 10081044
14:30+29з797341 0.3 10051065
17:30+27з6984100 0.9 1005750
20:30+26з5108999 0.6 1006429
22 сентября, ср
ср2223:30+26з4988100 0.8 1006388
02:30+25з51089100 1.8 1004402
05:30+25з4109199 4.6 1004432
08:30+25з4991100 2.1 1006455
11:30+25з4992100 6.9 1007484
14:30+28з6979100 3.8 1004925
17:30+27з598592 5.5 1004697
20:30+25з37946 2.3 1005224